TimeCST,TemperatureF,Dew PointF,Humidity,Sea Level PressureIn,VisibilityMPH,Wind Direction,Wind SpeedMPH,Gust SpeedMPH,PrecipitationIn,Events,Conditions,WindDirDegrees,DateUTC
12:53 AM,19.9,3.9,50,30.37,10.0,NE,3.5,-,N/A,,Clear,40,2013-02-20 06:53:00
1:53 AM,19.9,5.0,52,30.36,10.0,NE,4.6,-,N/A,,Clear,50,2013-02-20 07:53:00
2:53 AM,19.0,5.0,54,30.35,10.0,East,3.5,-,N/A,,Clear,80,2013-02-20 08:53:00
3:53 AM,17.1,3.0,54,30.34,10.0,ENE,4.6,-,N/A,,Clear,60,2013-02-20 09:53:00
4:53 AM,16.0,3.0,57,30.33,10.0,Calm,Calm,-,N/A,,Clear,0,2013-02-20 10:53:00
5:53 AM,16.0,3.0,57,30.34,10.0,ENE,4.6,-,N/A,,Clear,60,2013-02-20 11:53:00
6:53 AM,17.1,3.9,56,30.37,10.0,ENE,3.5,-,N/A,,Overcast,70,2013-02-20 12:53:00
7:53 AM,17.1,3.9,56,30.37,10.0,ENE,6.9,-,N/A,,Clear,60,2013-02-20 13:53:00
8:53 AM,18.0,5.0,57,30.38,10.0,East,6.9,-,N/A,,Overcast,90,2013-02-20 14:53:00
9:53 AM,19.9,6.1,55,30.40,10.0,SE,6.9,-,N/A,,Overcast,130,2013-02-20 15:53:00
10:53 AM,21.0,6.1,53,30.38,10.0,East,5.8,-,N/A,,Overcast,100,2013-02-20 16:53:00
11:53 AM,23.0,7.0,50,30.35,10.0,East,6.9,-,N/A,,Overcast,80,2013-02-20 17:53:00
12:53 PM,24.1,7.0,48,30.31,10.0,East,6.9,-,N/A,,Overcast,80,2013-02-20 18:53:00
1:53 PM,25.0,7.0,46,30.29,10.0,East,9.2,-,N/A,,Overcast,80,2013-02-20 19:53:00
2:53 PM,25.0,7.0,46,30.26,10.0,East,10.4,-,N/A,,Overcast,80,2013-02-20 20:53:00
3:53 PM,27.0,7.0,43,30.24,10.0,East,9.2,-,N/A,,Overcast,90,2013-02-20 21:53:00
4:53 PM,26.1,7.0,44,30.22,10.0,East,9.2,-,N/A,,Overcast,80,2013-02-20 22:53:00
5:53 PM,26.1,8.1,47,30.21,10.0,ENE,10.4,-,N/A,,Overcast,70,2013-02-20 23:53:00
6:53 PM,25.0,9.0,51,30.20,10.0,East,12.7,-,N/A,,Overcast,80,2013-02-21 00:53:00
7:53 PM,25.0,10.0,53,30.18,10.0,East,11.5,-,N/A,,Overcast,80,2013-02-21 01:53:00
8:53 PM,25.0,10.9,55,30.21,10.0,East,9.2,-,N/A,,Overcast,100,2013-02-21 02:53:00
10:53 PM,26.1,12.9,58,30.21,10.0,East,8.1,-,N/A,,Mostly Cloudy,80,2013-02-21 04:53:00
11:53 PM,25.0,12.0,58,30.18,10.0,ENE,11.5,-,N/A,,Overcast,70,2013-02-21 05:53:00